Regional Weather Roundup
Issued by NWS Newport/Morehead, NC

Current Version | Previous Version | Text Only | Print | Product List | Glossary On
Versions: 1 2 3 4 5 6 7 8 9 10 11 12 13 14 15 16 17 18 19 20 21 22 23 24 25 26 27 28 29 30 31 32 33 34 35 36 37 38 39 40 41 42 43 44 45 46 47 48 49 50
000 ASUS42 KMHX 021422 RWRMHX WEATHER ROUNDUP FOR EASTERN NORTH CAROLINA NATIONAL WEATHER SERVICE NEWPORT/MOREHEAD CITY NC 1000 AM EDT TUE SEP 02 2014 NOTE: "FAIR" INDICATES FEW OR NO CLOUDS BELOW 12,000 FEET WITH NO SIGNIFICANT WEATHER AND/OR OBSTRUCTIONS TO VISIBILITY NCZ015>017-031-032-045>047-102-103-021500- NORTH COAST CITY SKY/WX TMP DP RH WIND PRES REMARKS EDENTON SUNNY 83 75 75 W6 30.05S ELIZABETH CITY SUNNY 84 76 76 W9 30.05S KITTY HAWK SUNNY 84 74 72 SW9 30.04F MANTEO SUNNY 85 74 70 W7 30.05F $$ NCZ045>047-081-094-103-104-021500- CENTRAL COAST CITY SKY/WX TMP DP RH WIND PRES REMARKS FRISCO SUNNY 83 77 82 W9 30.08S SWANQUARTER N/A 84 N/A N/A SW9 30.03S $$ NCZ095-097-098-100-101-021500- SOUTHERN COAST CITY SKY/WX TMP DP RH WIND PRES REMARKS BEAUFORT SUNNY 85 77 77 W9 30.09S CEDAR ISLAND N/A 86 N/A N/A S9 30.12S JACKSONVILLE SUNNY 85 75 72 W6 30.08F NEWPORT NOT AVBL PINEY ISLAND SUNNY 86 77 74 W10 30.08S WILMINGTON SUNNY 85 76 74 SW8 30.09F $$ NCZ011>013-027>030-043-044-078>080-089-090>093-098-021500- COASTAL PLAIN CITY SKY/WX TMP DP RH WIND PRES REMARKS AHOSKIE SUNNY 84 73 70 CALM 30.05S CLINTON SUNNY 84 77 79 CALM 30.08S ELIZABETHTOWN SUNNY 84 75 73 CALM 30.08F GOLDSBORO SUNNY 85 79 83 VRB6 30.06S GREENVILLE SUNNY 84 75 74 W6 30.08S HAVELOCK MOSUNNY 86 75 69 W7 30.09F KENANSVILLE SUNNY 84 74 72 W6 30.09F KINSTON SUNNY 84 75 74 W6 30.08F NEW BERN SUNNY 87 75 67 W7 30.09S RICHLANDS SUNNY 86 73 66 W7 30.08S ROANOKE RAPIDS NOT AVBL ROCKY MOUNT SUNNY 84 73 69 SW6 30.07S WASHINGTON SUNNY 84 75 73 SW6 30.07S WHITEVILLE SUNNY 83 75 77 CALM 30.08F $$ AMZ130-135-150-152-154-156-158-170-250-252-270-ANZ085-086-088-633-658-670-021500- MARINE OBSERVATIONS STATION/POSITION TIME TEMP WIND PRES WAVE SWELL AIR SEA DIR/SP/G HT/PER HT/PER (UTC) (F) (DEG/KT/KT) (MB) (FT/S) (FT/S) CHESAPEAKE LIGHT 1400 81 230/ 8/ 9 1017.4 BUOY 44014 1400 78 77 230/ 12/ 14 1016.8 3/ 9 2/ 9 DUCK 1400 80 75 230/ 11/ 12 1017.0 2E DUCK 1400 N/A 2/12 2/12 OREGON INLET 1400 82 84 240/ 8/ 9 1017.8 BUOY 44095 1400 79 N/A 3/13 2/13 20E OREGON INLET NOT AVBL HATTERAS CG 1400 83 83 250/ 8/ 12 1019.2 DIAMOND BUOY 1400 81 240/ 12/ 14 1018.8 3/ 5 2/11 CAPE LOOKOUT 1400 82 260/ 11/ 12 1019.0 BEAUFORT LAB 1400 83 83 250/ 5/ 7 1018.5 30 SE NEW RIVER 1400 82 82 280/ 8/ 10 1019.5 3/10 2/10 5 SE WRIGHTSVILL 1400 79 83 250/ 6/ 8 N/A BUOY 41002 1347 81 83 210/ 10/ 12 1021.2 3/10 3/10 BUOY 41004 1400 83 83 220/ 2/ 4 1018.9 2/ 8 2/ 8 $$

USA.gov is the U.S. government's official web portal to all federal, state and local government web resources and services.